Lewistown, MT

3:24 AM MDT on September 26, 2017 (GMT -0600)
Lewistown Municipal

Weather History for KLWT - November, 2012

Change the Weather History Date:

Tuesday, November 6, 2012

  Actual Average Record
Temperature  
Mean Temperature 44 °F 36 °F  
Max Temperature 58 °F 48 °F 74 °F (1949)
Min Temperature 30 °F 24 °F -3 °F (1971)
Degree Days  
Heating Degree Days 21 29  
Month to date heating degree days 122 168  
Since 1 July heating degree days 1144 1306  
Cooling Degree Days 0 0  
Month to date cooling degree days 0 0  
Year to date cooling degree days 314 210  
Moisture  
Dew Point 32 °F    
Average Humidity 66    
Maximum Humidity 92    
Minimum Humidity 39    
Precipitation  
Precipitation 0.00 in 0.03 in 0.47 in (1945)
Month to date precipitation 0.21 0.15  
Year to date precipitation 14.60 15.63  
Snow  
Snow 0.00 in - - ()
Snow Depth 0.00 in    
Sea Level Pressure  
Sea Level Pressure 30.08 in    
Wind  
Wind Speed 9 mph (SSW)    
Max Wind Speed 20 mph    
Max Gust Speed 23 mph    
Visibility 10 miles    
Events      
T = Trace of Precipitation, MM = Missing Value Source: NWS Daily Summary

Daily Weather History Graph

Daily Weather History Graph

Search for Another Location

Airport or City:

Trip Planner

Search our weather history database for the weather conditions in past years. The results will help you decide how hot, cold, wet, or windy it might be!

Date:

Astronomy

Nov. 06, 2012 Rise Set
Actual Time 7:08 AM MST 4:53 PM MST
Civil Twilight 6:36 AM MST 5:25 PM MST
Nautical Twilight 6:00 AM MST 6:02 PM MST
Astronomical Twilight 5:24 AM MST 6:37 PM MST
Moon 11:41 PM MST (11/6) 12:59 PM MST (11/6)
Length of Visible Light 10h 49m
Length of Day
9h 44m
Waning Gibbous, 52% of the Moon is Illuminated
Nov 6
Waning Gibbous
Nov 6
Last Quarter
Nov 13
New
Nov 20
First Quarter
Nov 28
Full

Hourly Weather History & Observations

Time (MST) Temp. Windchill Dew Point Humidity Pressure Visibility Wind Dir Wind Speed Gust Speed Precip Events Conditions
12:54 AM 37.9 °F 32.1 °F 30.0 °F 73% 30.16 in 10.0 mi WSW 8.1 mph - N/A   Clear
1:54 AM 35.1 °F - 28.9 °F 78% 30.17 in 10.0 mi Calm Calm - N/A   Clear
2:54 AM 36.0 °F 30.3 °F 30.0 °F 79% 30.17 in 10.0 mi South 6.9 mph - N/A   Clear
3:54 AM 37.0 °F 31.0 °F 30.0 °F 76% 30.17 in 10.0 mi SSW 8.1 mph - N/A   Clear
4:54 AM 35.1 °F 28.6 °F 30.0 °F 82% 30.20 in 10.0 mi SW 8.1 mph - N/A   Clear
5:54 AM 36.0 °F 29.0 °F 30.0 °F 79% 30.20 in 10.0 mi SSW 9.2 mph - N/A   Clear
6:54 AM 30.9 °F 23.5 °F 28.0 °F 89% 30.22 in 10.0 mi ESE 8.1 mph - N/A   Clear
7:54 AM 35.1 °F 31.0 °F 30.9 °F 85% 30.23 in 10.0 mi SSE 4.6 mph - N/A   Clear
8:54 AM 46.9 °F - 35.1 °F 63% 30.19 in 10.0 mi South 5.8 mph - N/A   Scattered Clouds
9:54 AM 46.9 °F - 35.1 °F 63% 30.19 in 10.0 mi East 3.5 mph - N/A   Clear
10:54 AM 52.0 °F - 34.0 °F 50% 30.15 in 10.0 mi Calm Calm - N/A   Clear
11:54 AM 53.1 °F - 33.1 °F 47% 30.12 in 10.0 mi East 3.5 mph - N/A   Clear
12:54 PM 54.0 °F - 34.0 °F 47% 30.09 in 10.0 mi Calm Calm - N/A   Clear
1:54 PM 57.9 °F - 34.0 °F 41% 30.06 in 10.0 mi SW 9.2 mph - N/A   Clear
2:54 PM 57.9 °F - 33.1 °F 39% 30.04 in 10.0 mi WSW 8.1 mph - N/A   Clear
3:54 PM 55.0 °F - 34.0 °F 45% 30.03 in 10.0 mi SW 8.1 mph - N/A   Clear
4:54 PM 53.1 °F - 32.0 °F 45% 30.03 in 10.0 mi SW 11.5 mph - N/A   Clear
5:54 PM 55.0 °F - 33.1 °F 43% 29.99 in 10.0 mi SW 13.8 mph - N/A   Clear
6:54 PM 54.0 °F - 33.1 °F 45% 29.99 in 10.0 mi SW 15.0 mph - N/A   Clear
7:54 PM 57.0 °F - 32.0 °F 39% 29.96 in 10.0 mi SW 16.1 mph - N/A   Clear
8:54 PM 55.0 °F - 32.0 °F 42% 29.92 in 10.0 mi SW 15.0 mph - N/A   Clear
9:54 PM 57.9 °F - 32.0 °F 37% 29.89 in 10.0 mi SW 13.8 mph - N/A   Clear
10:54 PM 57.0 °F - 32.0 °F 39% 29.86 in 10.0 mi SW 16.1 mph - N/A   Clear
11:54 PM 57.0 °F - 30.9 °F 37% 29.83 in 10.0 mi SW 18.4 mph - N/A   Clear